Main page
METAR-TAF:

METAR-TAF

Airports :

Hutchinson County Airport

Borger, Texas, United States

latitude: 35-41-42N, longitude: 101-23-42W, elevation: 3054 ft

Current weather observation

The report was made 34 minutes ago, at 02:51 UTC
Wind 5 mph from the North/Northeast
Temperature 79°F
Humidity 48%
Pressure 30.05 in. Hg
Visibility: 10 miles
Clear sky

METAR: KBGD 200251Z AUTO 03004KT 10SM CLR 26/14 A3005 RMK AO2 SLP136 T02610139 53022

Time: 22:25 (03:25 UTC)


TAF: missing

Weather observations and forecasts of more than 4000 airports (METAR and TAF reports).

The available stations are represented by yellow and red dots on the map.

Hover mouse over dot to see the name of the station.

Then click to see weather observations and forecasts.

To change the map : click on the green buttons with a black cross to zoom in, on the green button with a dash to zoom out, or on the green arrows for adjacent maps.


METAR-TAF: